Houston, TX

9:23 PM CDT on October 19, 2017 (GMT -0500)
Hobby

Weather History for KHOU - November, 2012

Change the Weather History Date:

Saturday, November 24, 2012

  Actual Average Record
Temperature  
Mean Temperature 55 °F 60 °F  
Max Temperature 66 °F 70 °F 84 °F (1910)
Min Temperature 43 °F 49 °F 26 °F (1970)
Degree Days  
Heating Degree Days 10 7  
Month to date heating degree days 89 107  
Since 1 July heating degree days 129 137  
Growing Degree Days 6 (Base 50)    
Moisture  
Dew Point 32 °F    
Average Humidity 47    
Maximum Humidity 70    
Minimum Humidity 24    
Precipitation  
Precipitation 0.00 in 0.13 in 3.35 in (1940)
Month to date precipitation 0.59 3.48  
Year to date precipitation 39.41 45.17  
Sea Level Pressure  
Sea Level Pressure 30.30 in    
Wind  
Wind Speed 12 mph (NE)    
Max Wind Speed 18 mph    
Max Gust Speed 23 mph    
Visibility 10 miles    
Events      
T = Trace of Precipitation, MM = Missing Value Source: NWS Daily Summary

Daily Weather History Graph

Daily Weather History Graph

Search for Another Location

Airport or City:

Trip Planner

Search our weather history database for the weather conditions in past years. The results will help you decide how hot, cold, wet, or windy it might be!

Date:

Astronomy

Nov. 24, 2012 Rise Set
Actual Time 6:53 AM CST 5:22 PM CST
Civil Twilight 6:27 AM CST 5:48 PM CST
Nautical Twilight 5:58 AM CST 6:17 PM CST
Astronomical Twilight 5:29 AM CST 6:45 PM CST
Moon 2:56 PM CST (11/24) 3:23 AM CST (11/24)
Length of Visible Light 11h 20m
Length of Day
10h 28m
Waxing Gibbous, 87% of the Moon is Illuminated
Nov 24
Waxing Gibbous
Nov 28
Full
Dec 6
Last Quarter
Dec 13
New
Dec 19
First Quarter

Hourly Weather History & Observations

Time (CST) Temp. Dew Point Humidity Pressure Visibility Wind Dir Wind Speed Gust Speed Precip Events Conditions
12:53 AM 62.1 °F 45.0 °F 53% 30.34 in 10.0 mi North 12.7 mph - N/A   Overcast
1:53 AM 60.1 °F 35.1 °F 39% 30.34 in 10.0 mi NNE 23.0 mph 27.6 mph N/A   Overcast
2:53 AM 57.0 °F 28.9 °F 34% 30.33 in 10.0 mi NNE 19.6 mph 25.3 mph N/A   Overcast
3:53 AM 55.0 °F 28.9 °F 37% 30.34 in 10.0 mi North 18.4 mph - N/A   Overcast
4:53 AM 52.0 °F 28.9 °F 41% 30.35 in 10.0 mi NE 12.7 mph - N/A   Scattered Clouds
5:53 AM 50.0 °F 28.9 °F 44% 30.36 in 10.0 mi NNE 13.8 mph - N/A   Partly Cloudy
6:53 AM 48.0 °F 30.0 °F 50% 30.38 in 10.0 mi NNE 11.5 mph - N/A   Partly Cloudy
7:53 AM 50.0 °F 30.0 °F 46% 30.39 in 10.0 mi NNE 11.5 mph - N/A   Partly Cloudy
8:53 AM 51.1 °F 30.0 °F 44% 30.40 in 10.0 mi NE 13.8 mph - N/A   Partly Cloudy
9:53 AM 54.0 °F 30.0 °F 40% 30.40 in 10.0 mi NE 10.4 mph - N/A   Partly Cloudy
10:53 AM 55.9 °F 30.9 °F 39% 30.37 in 10.0 mi NE 8.1 mph - N/A   Partly Cloudy
11:53 AM 60.1 °F 30.9 °F 33% 30.34 in 10.0 mi NE 9.2 mph - N/A   Partly Cloudy
12:53 PM 62.1 °F 30.9 °F 31% 30.30 in 10.0 mi NNE 11.5 mph - N/A   Partly Cloudy
1:53 PM 64.0 °F 28.0 °F 26% 30.27 in 10.0 mi NNE 9.2 mph - N/A   Partly Cloudy
2:53 PM 64.9 °F 27.0 °F 24% 30.24 in 10.0 mi NNE 5.8 mph - N/A   Partly Cloudy
3:53 PM 64.0 °F 27.0 °F 25% 30.23 in 10.0 mi ENE 5.8 mph - N/A   Partly Cloudy
4:53 PM 64.0 °F 28.0 °F 26% 30.23 in 10.0 mi NE 3.5 mph - N/A   Partly Cloudy
5:53 PM 57.9 °F 33.1 °F 39% 30.23 in 10.0 mi East 3.5 mph - N/A   Partly Cloudy
6:53 PM 55.0 °F 37.0 °F 51% 30.23 in 10.0 mi SE 3.5 mph - N/A   Partly Cloudy
7:53 PM 51.1 °F 37.9 °F 61% 30.23 in 10.0 mi Calm Calm - N/A   Clear
8:53 PM 50.0 °F 37.0 °F 61% 30.22 in 10.0 mi Calm Calm - N/A   Clear
9:53 PM 50.0 °F 36.0 °F 59% 30.22 in 10.0 mi South 3.5 mph - N/A   Clear
10:53 PM 48.0 °F 37.0 °F 66% 30.21 in 10.0 mi Calm Calm - N/A   Clear
11:53 PM 48.0 °F 37.9 °F 68% 30.19 in 10.0 mi Calm Calm - N/A   Clear